NPV7799 LIRN-LIML

Flight info

Callsign NPV7799
Flight time N/A
Altitude 34000
Route ALAXI DCT INSOX DCT NIKMA DCT VERUN DCT LOMED DCT RUXOL/N0371F180 Q920 KALIK
Aircraft A320/M-SDE3FGHIRWY/LB1

Departure

Time N/A
Airport Naples International Airport (LIRN)

Arrival

Time 2026-05-05 15:16
Airport Milano Linate Airport (LIML)
Time Latitude Longitude Altitude Speed Heading
2026-05-05 14:04 41.69895 13.39917 32867 ft 409 kts 308°
2026-05-05 14:04 41.71849 13.37114 33382 ft 407 kts 308°
2026-05-05 14:05 41.73761 13.34375 33877 ft 405 kts 308°
2026-05-05 14:05 41.75672 13.31629 34106 ft 405 kts 308°
2026-05-05 14:05 41.79527 13.26053 34126 ft 408 kts 308°
2026-05-05 14:06 41.83770 13.20917 34115 ft 418 kts 321°
2026-05-05 14:06 41.88755 13.16831 34106 ft 420 kts 322°
2026-05-05 14:07 41.93757 13.12742 34092 ft 420 kts 322°
2026-05-05 14:07 41.98732 13.08655 34086 ft 418 kts 322°
2026-05-05 14:08 42.03702 13.04557 34089 ft 418 kts 322°
2026-05-05 14:08 42.08664 13.00456 34088 ft 418 kts 322°
2026-05-05 14:09 42.13625 12.96356 34088 ft 419 kts 322°
2026-05-05 14:09 42.18561 12.92277 34089 ft 419 kts 322°
2026-05-05 14:10 42.23519 12.88172 34100 ft 419 kts 322°
2026-05-05 14:10 42.28482 12.84047 34102 ft 418 kts 322°
2026-05-05 14:11 42.33442 12.79912 34121 ft 419 kts 322°
2026-05-05 14:11 42.38404 12.75760 34123 ft 419 kts 321°
2026-05-05 14:12 42.43362 12.71611 34123 ft 419 kts 321°
2026-05-05 14:12 42.48319 12.67469 34118 ft 419 kts 322°
2026-05-05 14:13 42.53287 12.63312 34117 ft 419 kts 321°
2026-05-05 14:13 42.58238 12.59138 34092 ft 419 kts 322°
2026-05-05 14:14 42.63171 12.54984 34072 ft 420 kts 322°
2026-05-05 14:14 42.68165 12.50777 34054 ft 420 kts 322°
2026-05-05 14:15 42.73090 12.46614 34053 ft 420 kts 322°
2026-05-05 14:15 42.78040 12.42420 34062 ft 420 kts 322°
2026-05-05 14:16 42.83008 12.38203 34066 ft 420 kts 321°
2026-05-05 14:16 42.87963 12.33984 34055 ft 419 kts 321°
2026-05-05 14:17 42.92916 12.29759 34062 ft 419 kts 321°
2026-05-05 14:17 42.97868 12.25532 34072 ft 419 kts 321°
2026-05-05 14:18 43.02809 12.21310 34049 ft 420 kts 321°
2026-05-05 14:18 43.07605 12.16891 34027 ft 414 kts 313°
2026-05-05 14:19 43.11928 12.11698 34026 ft 414 kts 313°
2026-05-05 14:19 43.16255 12.06485 34027 ft 414 kts 313°
2026-05-05 14:20 43.20589 12.01273 34057 ft 414 kts 312°
2026-05-05 14:20 43.24905 11.96064 34041 ft 414 kts 312°
2026-05-05 14:21 43.29238 11.90818 34033 ft 414 kts 312°
2026-05-05 14:21 43.33559 11.85581 34013 ft 414 kts 312°
2026-05-05 14:22 43.37882 11.80333 34010 ft 414 kts 312°
2026-05-05 14:22 43.42196 11.75084 34008 ft 414 kts 312°
2026-05-05 14:23 43.46523 11.69811 34011 ft 415 kts 312°
2026-05-05 14:23 43.50851 11.64521 34026 ft 416 kts 311°
2026-05-05 14:24 43.55180 11.59221 34020 ft 417 kts 311°
2026-05-05 14:24 43.59495 11.53944 34019 ft 417 kts 311°
2026-05-05 14:25 43.63823 11.48632 34008 ft 416 kts 311°
2026-05-05 14:25 43.68145 11.43303 34016 ft 417 kts 311°
2026-05-05 14:26 43.72472 11.37954 34008 ft 418 kts 311°
2026-05-05 14:26 43.76814 11.32585 34006 ft 418 kts 311°
2026-05-05 14:27 43.81161 11.27209 34006 ft 418 kts 311°
2026-05-05 14:27 43.85493 11.21840 34012 ft 418 kts 311°
2026-05-05 14:28 43.89810 11.16478 34008 ft 419 kts 311°
2026-05-05 14:28 43.94157 11.11050 33996 ft 420 kts 311°
2026-05-05 14:29 43.98499 11.05624 33986 ft 421 kts 311°
2026-05-05 14:29 44.02270 10.99584 33993 ft 408 kts 295°
2026-05-05 14:30 44.04436 10.92461 33995 ft 398 kts 282°
2026-05-05 14:30 44.06014 10.85081 34015 ft 398 kts 282°
2026-05-05 14:31 44.07610 10.77694 34019 ft 399 kts 282°
2026-05-05 14:31 44.09196 10.70313 34020 ft 398 kts 282°
2026-05-05 14:32 44.10764 10.62927 34026 ft 399 kts 282°
2026-05-05 14:32 44.13160 10.55894 34061 ft 410 kts 298°
2026-05-05 14:33 44.16312 10.49351 34026 ft 409 kts 297°
2026-05-05 14:33 44.19465 10.42747 34019 ft 409 kts 297°
2026-05-05 14:34 44.22588 10.36204 34005 ft 410 kts 297°
2026-05-05 14:34 44.25743 10.29569 33994 ft 410 kts 297°
2026-05-05 14:35 44.28888 10.22942 33984 ft 409 kts 297°
2026-05-05 14:35 44.32032 10.16288 34019 ft 411 kts 297°
2026-05-05 14:36 44.35149 10.09690 34001 ft 409 kts 297°
2026-05-05 14:36 44.38279 10.03042 33998 ft 409 kts 296°
2026-05-05 14:37 44.41398 9.96405 33983 ft 409 kts 296°
2026-05-05 14:37 44.44514 9.89764 33979 ft 408 kts 296°
2026-05-05 14:38 44.48416 9.83843 33974 ft 428 kts 318°
2026-05-05 14:38 44.53760 9.79836 33974 ft 437 kts 325°
2026-05-05 14:39 44.59178 9.75955 33972 ft 438 kts 326°
2026-05-05 14:39 44.64618 9.72042 33954 ft 440 kts 325°
2026-05-05 14:40 44.70040 9.68131 33951 ft 441 kts 325°
2026-05-05 14:40 44.75512 9.64177 33955 ft 442 kts 326°
2026-05-05 14:41 44.80994 9.60218 33964 ft 443 kts 326°
2026-05-05 14:41 44.86479 9.56227 33959 ft 444 kts 326°
2026-05-05 14:42 44.91980 9.52223 33978 ft 446 kts 326°
2026-05-05 14:42 44.97499 9.48206 33966 ft 446 kts 326°
2026-05-05 14:43 45.03017 9.44181 33964 ft 447 kts 326°
2026-05-05 14:43 45.07632 9.40823 33959 ft 449 kts 326°
2026-05-05 14:44 45.14133 9.36211 33959 ft 450 kts 327°
2026-05-05 14:44 45.18754 9.32981 33970 ft 430 kts 327°
2026-05-05 14:45 45.22256 9.30615 33969 ft 416 kts 334°
2026-05-05 14:45 45.24135 9.29864 33970 ft 415 kts 344°
2026-05-05 14:45 45.29808 9.29289 33989 ft 405 kts 350°
2026-05-05 14:46 45.35404 9.28757 34001 ft 403 kts 349°
2026-05-05 14:46 45.40994 9.28115 34012 ft 403 kts 348°
2026-05-05 14:47 45.46567 9.27486 34003 ft 404 kts 349°
2026-05-05 14:47 45.52193 9.28001 34001 ft 419 kts 21°
2026-05-05 14:48 45.54639 9.30282 34003 ft 425 kts 46°
2026-05-05 14:48 45.56294 9.33684 34001 ft 422 kts 71°
2026-05-05 14:48 45.56923 9.37707 34139 ft 410 kts 95°
2026-05-05 14:48 45.56732 9.41716 34121 ft 403 kts 106°
2026-05-05 14:49 45.56026 9.45564 34143 ft 395 kts 117°
2026-05-05 14:49 45.54864 9.49070 34144 ft 387 kts 129°
2026-05-05 14:49 45.51456 9.54715 34140 ft 369 kts 149°
2026-05-05 14:50 45.47180 9.58536 34130 ft 354 kts 168°
2026-05-05 14:50 45.44829 9.59335 34115 ft 343 kts 181°
2026-05-05 14:50 45.42475 9.59304 34114 ft 335 kts 193°
2026-05-05 14:51 45.40257 9.58547 34095 ft 330 kts 205°
2026-05-05 14:51 45.38221 9.57104 34090 ft 326 kts 216°
2026-05-05 14:51 45.36484 9.55047 34067 ft 323 kts 228°
2026-05-05 14:51 45.35142 9.52511 34075 ft 323 kts 239°
2026-05-05 14:52 45.34233 9.49575 34061 ft 325 kts 251°
2026-05-05 14:52 45.33825 9.46397 34059 ft 330 kts 263°
2026-05-05 14:52 45.33949 9.43107 34064 ft 337 kts 275°
2026-05-05 14:52 45.34627 9.39881 34063 ft 347 kts 288°
2026-05-05 14:53 45.35874 9.36895 33998 ft 358 kts 301°
2026-05-05 14:53 45.37668 9.34367 33996 ft 370 kts 316°
2026-05-05 14:53 45.39931 9.32530 34019 ft 384 kts 331°
2026-05-05 14:53 45.42573 9.31594 34000 ft 399 kts 349°
2026-05-05 14:54 45.45381 9.31759 34005 ft 412 kts
2026-05-05 14:54 45.48110 9.33088 34001 ft 421 kts 26°
2026-05-05 14:54 45.50577 9.35247 33723 ft 423 kts 32°
2026-05-05 14:54 45.52971 9.37669 33474 ft 422 kts 37°
2026-05-05 14:55 45.55032 9.40605 33143 ft 418 kts 51°
2026-05-05 14:55 45.56528 9.44071 32854 ft 410 kts 72°
2026-05-05 14:55 45.57194 9.47970 32526 ft 400 kts 90°
2026-05-05 14:55 45.57118 9.51872 31936 ft 392 kts 103°
2026-05-05 14:56 45.56522 9.55658 30974 ft 388 kts 121°
2026-05-05 14:56 45.55157 9.58855 30289 ft 368 kts 142°
2026-05-05 14:56 45.53236 9.61046 29542 ft 345 kts 162°
2026-05-05 14:56 45.51075 9.62433 28808 ft 337 kts 167°
2026-05-05 14:57 45.48903 9.63670 28112 ft 334 kts 167°
2026-05-05 14:57 45.46789 9.64858 27503 ft 330 kts 167°
2026-05-05 14:57 45.44640 9.66058 26878 ft 326 kts 167°
2026-05-05 14:57 45.42543 9.67160 26299 ft 316 kts 174°
2026-05-05 14:58 45.40437 9.67648 25768 ft 306 kts 180°
2026-05-05 14:58 45.38315 9.68049 25260 ft 302 kts 180°
2026-05-05 14:58 45.36269 9.68436 24742 ft 299 kts 180°
2026-05-05 14:58 45.34209 9.68821 24245 ft 296 kts 180°
2026-05-05 14:59 45.32180 9.69199 23773 ft 293 kts 180°
2026-05-05 14:59 45.30174 9.69572 23281 ft 289 kts 180°
2026-05-05 14:59 45.28188 9.69940 22713 ft 286 kts 180°
2026-05-05 14:59 45.26223 9.70302 22197 ft 283 kts 180°
2026-05-05 15:00 45.24293 9.70659 21702 ft 279 kts 180°
2026-05-05 15:00 45.23021 9.70896 21375 ft 277 kts 180°
2026-05-05 15:00 45.20489 9.71369 20740 ft 272 kts 179°
2026-05-05 15:00 45.18623 9.71719 20285 ft 269 kts 179°
2026-05-05 15:01 45.16782 9.72063 19837 ft 265 kts 179°
2026-05-05 15:01 45.14955 9.72399 19370 ft 263 kts 179°
2026-05-05 15:01 45.13180 9.72725 18940 ft 260 kts 179°
2026-05-05 15:01 45.11367 9.73060 18507 ft 257 kts 179°
2026-05-05 15:02 45.09605 9.73384 18067 ft 254 kts 179°
2026-05-05 15:02 45.07880 9.73402 17565 ft 243 kts 197°
2026-05-05 15:02 45.06313 9.72524 16719 ft 248 kts 212°
2026-05-05 15:02 45.04758 9.71277 15733 ft 264 kts 212°
2026-05-05 15:03 45.03141 9.69981 15003 ft 269 kts 212°
2026-05-05 15:03 45.01505 9.68676 14418 ft 270 kts 212°
2026-05-05 15:03 44.99872 9.67378 13867 ft 269 kts 212°
2026-05-05 15:03 44.98265 9.66106 13255 ft 268 kts 212°
2026-05-05 15:04 44.96651 9.64830 12693 ft 265 kts 212°
2026-05-05 15:04 44.95052 9.63567 12188 ft 262 kts 211°
2026-05-05 15:04 44.93474 9.62317 11652 ft 259 kts 213°
2026-05-05 15:04 44.92129 9.60678 11124 ft 255 kts 234°
2026-05-05 15:05 44.91397 9.55886 9971 ft 263 kts 281°
2026-05-05 15:05 44.92214 9.53558 9363 ft 271 kts 307°
2026-05-05 15:05 44.93705 9.51912 8778 ft 276 kts 328°
2026-05-05 15:06 44.95403 9.50636 8172 ft 277 kts 329°
2026-05-05 15:06 44.97108 9.49372 7616 ft 275 kts 329°
2026-05-05 15:06 44.98801 9.48120 7071 ft 273 kts 329°
2026-05-05 15:06 45.00481 9.46872 6569 ft 272 kts 329°
2026-05-05 15:07 45.02150 9.45625 6041 ft 271 kts 329°
2026-05-05 15:07 45.03806 9.44387 5552 ft 268 kts 329°
2026-05-05 15:07 45.05438 9.43165 5083 ft 265 kts 330°
2026-05-05 15:07 45.07053 9.41956 4588 ft 262 kts 330°
2026-05-05 15:08 45.08656 9.40754 4078 ft 258 kts 330°
2026-05-05 15:08 45.10185 9.39608 3929 ft 240 kts 330°
2026-05-05 15:08 45.11607 9.38541 3764 ft 224 kts 330°
2026-05-05 15:08 45.12950 9.37532 3415 ft 219 kts 331°
2026-05-05 15:09 45.14282 9.36528 2999 ft 216 kts 331°
2026-05-05 15:09 45.15605 9.35530 2624 ft 214 kts 332°
2026-05-05 15:09 45.16891 9.34560 2443 ft 203 kts 332°
2026-05-05 15:09 45.18105 9.33643 2199 ft 196 kts 332°
2026-05-05 15:10 45.19303 9.32738 1892 ft 194 kts 332°
2026-05-05 15:10 45.20488 9.31845 1584 ft 193 kts 333°
2026-05-05 15:10 45.21704 9.30965 1586 ft 198 kts 338°
2026-05-05 15:10 45.23001 9.30297 1590 ft 199 kts 346°
2026-05-05 15:11 45.24289 9.29908 1599 ft 177 kts 353°
2026-05-05 15:11 45.25440 9.29756 1605 ft 160 kts 357°
2026-05-05 15:11 45.26503 9.29644 1610 ft 150 kts 358°
2026-05-05 15:11 45.27545 9.29533 1608 ft 146 kts 356°
2026-05-05 15:12 45.28538 9.29429 1602 ft 144 kts 357°
2026-05-05 15:12 45.29538 9.29324 1605 ft 144 kts 357°
2026-05-05 15:12 45.30545 9.29218 1606 ft 144 kts 356°
2026-05-05 15:12 45.31525 9.29115 1459 ft 139 kts 356°
2026-05-05 15:13 45.32478 9.29015 1052 ft 139 kts 357°
2026-05-05 15:13 45.33435 9.28912 1015 ft 139 kts 358°
2026-05-05 15:13 45.34406 9.28809 1009 ft 141 kts 358°
2026-05-05 15:13 45.35390 9.28706 1016 ft 142 kts 358°
2026-05-05 15:14 45.36374 9.28603 1018 ft 141 kts 358°
2026-05-05 15:14 45.37357 9.28499 1007 ft 142 kts 357°
2026-05-05 15:14 45.38336 9.28394 1012 ft 141 kts 358°
2026-05-05 15:14 45.39322 9.28291 1012 ft 141 kts 356°
2026-05-05 15:15 45.40309 9.28186 1007 ft 143 kts 359°
2026-05-05 15:15 45.41297 9.28071 950 ft 143 kts 359°
2026-05-05 15:15 45.42301 9.27954 610 ft 143 kts 358°
2026-05-05 15:15 45.43276 9.27832 431 ft 140 kts
2026-05-05 15:16 45.44213 9.27740 360 ft 118 kts 356°
2026-05-05 15:16 45.44777 9.27685 365 ft 56 kts 355°
2026-05-05 15:16 45.45026 9.27656 360 ft 32 kts 355°
2026-05-05 15:16 45.45242 9.27645 358 ft 31 kts
2026-05-05 15:17 45.45397 9.27725 364 ft 13 kts 26°
2026-05-05 15:17 45.45411 9.27735 359 ft 0 kts 26°